Miscellaneous Local Product
Issued by NWS Hastings, NE

Home | Current Version | Previous Version | Graphics & Text | Print | Product List | Glossary On
Versions: 1 2 3 4 5 6 7 8 9 10 11 12 13 14 15 16 17 18 19 20 21 22 23 24 25 26 27 28 29 30 31 32 33 34 35 36 37 38 39 40 41 42 43 44 45 46 47 48 49 50
000
AXUS43 KGID 011102
MISGRI

GID CWA HOURLY WEATHER ROUNDUP
NATIONAL WEATHER SERVICE HASTINGS NE
600 AM CDT SAT AUG 01 2015

NOTE: "FAIR" INDICATES FEW OR NO CLOUDS BELOW 12,000 FEET WITH NO
SIGNIFICANT WEATHER AND/OR OBSTRUCTIONS TO VISIBILITY.

...SOUTH CENTRAL NEBRASKA...

CITY           SKY/WX    TMP DP  RH WIND       PRES   REMARKS
GRAND ISLAND   MOCLDY    69  60  73 E10       30.10F
HASTINGS       PTCLDY    69  59  70 E13       30.09F
KEARNEY        PTCLDY    63  59  88 E10       30.08F
ORD            MOCLDY    65  62  90 N15       30.12R
YORK           TSTM      66  63  88 W6        30.10S
AURORA         MOCLDY    66  64  94 S9        30.10F
LEXINGTON      CLEAR     70  55  58 SW3       30.05F
HOLDREGE       CLEAR     67  61  79 SW5       30.05F
HEBRON         PTCLDY    65  62  89 CALM      30.07F

...NEBRASKA PANHANDLE...

CITY           SKY/WX    TMP DP  RH WIND       PRES   REMARKS
CHADRON        CLEAR     57  53  86 W6        30.03F
ALLIANCE       CLEAR     57  54  89 S8        30.09F
SCOTTSBLUFF    CLEAR     64  55  72 E5        30.09F
SIDNEY         CLEAR     63  56  78 SW10      30.15F

...WESTERN AND NORTH CENTRAL NEBRASKA...

CITY           SKY/WX    TMP DP  RH WIND       PRES   REMARKS
VALENTINE      PTCLDY    66  54  65 CALM      30.09R
AINSWORTH      PTCLDY    64  55  72 S9        30.08S
ONEILL         LGT RAIN  68  62  81 W14       30.12R
BROKEN BOW     CLEAR     64  60  87 CALM      30.09R
IMPERIAL       CLEAR     65  58  78 SE9       30.13R
NORTH PLATTE   CLEAR     72  59  63 SW12      30.07F
MCCOOK         PTCLDY    70  53  54 S8        30.09F

...EASTERN NEBRASKA...

CITY           SKY/WX    TMP DP  RH WIND       PRES   REMARKS
NORFOLK        MOCLDY    64  62  93 W3        30.06R
SO SIOUX CITY  FOG       62  59  90 SE3       30.01F VSB 1
TEKAMAH        CLEAR     61  59  93 CALM      30.03S
COLUMBUS       CLOUDY    64  57  77 CALM      30.08R
ALBION         CLOUDY    66  61  84 SW9       30.10R
OMAHA EPPLEY   PTCLDY    69  66  90 S5        30.03F
OFFUTT AFB     PTCLDY    64  64  99 CALM      30.02F
MILLARD        PTCLDY    67  66  96 CALM      30.03F
LINCOLN        CLOUDY    65  63  93 CALM      30.05S
NEBRASKA CITY  MOCLDY    67  66  99 CALM      30.04S
BEATRICE       PTCLDY    66  64  93 CALM      30.06F
FALLS CITY     CLEAR     69  68  96 E3        30.03S

...NORTHERN KANSAS...

CITY           SKY/WX    TMP DP  RH WIND       PRES   REMARKS
GOODLAND       CLEAR     67  60  78 SW10      30.16F
HILL CITY      CLEAR     69  66  90 NW6       30.10F
NORTON         SUNNY     68  61  77 S7        30.07F
PHILLIPSBURG   CLEAR     70  70 100 S6        30.06F
SMITH CENTER   CLEAR     68  64  88 S7        30.07F
HAYS           CLEAR     66  61  82 SW7       30.10F
RUSSELL        CLEAR     69  68  96 SW7       30.07F
CONCORDIA      MOCLDY    71  68  90 SW8       30.06F
SALINA         CLEAR     71  67  87 CALM      30.06F
TOPEKA         CLEAR     72  68  87 CALM      30.05S



USA.gov is the U.S. government's official web portal to all federal, state and local government web resources and services.